sat.trackr.live / text

‹ back to catalog

STARLINK-35544

NORAD 65922 · 2025-225N

PAYLOAD ACTIVE UNKNOWN

§ Identity

Operator
Country
US
Launch date
2025-10-08
Launch site
AFWTR
Launch vehicle
Mass (kg)
RCS (m²)

Purposes: comms

External: N2YO · Heavens-Above · Gunter

§ Orbital elements

Epoch: 2026-09-20T12:04:44.943744Z

Period
93.85 min
Inclination
53.1599°
Eccentricity
0.0001144
Mean motion
15.34403742 rev/d
Perigee alt
461.9 km
Apogee alt
463.5 km
Semi-major
6,840.8 km
B*
6.1425e-4
RAAN
337.3400°
Arg perigee
72.0792°
Mean anomaly
288.0336°
Rev number
5,428

§ Raw data

STARLINK-355441 65922U 25225N   26263.50329796  .00020436  00000+0  61425-3 0  99952 65922  53.1599 337.3400 0001144  72.0792 288.0336 15.34403742 54287

JSON: /api/v1/satellites/65922 · /tle

For live sub-satellite position, see the globe view (requires WebGL).

§ Visibility from observer

Set your observer location to see the next 7 days of passes ≥ 10°. The values pass through the URL so the page stays shareable.

No JS? Fill the form by hand. The geolocation button needs JavaScript.